Location: Gull Harbor
(47.1000°N, 122.9000°W)
Time: 05:02:29
(UTC-07:00)

ISS - Pass Details

Date: 22 March 2019
Orbit: 408 x 410 km, 51.6° (Epoch: 25 April)

Event Time Altitude Azimuth Distance (km) Brightness Sun altitude
Rises 20:47:50 0° 225° (SW) 2,325 0.4 -14.3°
Reaches altitude 10° 20:49:58 10° 219° (SW) 1,467 -0.7 -14.7°
Maximum altitude 20:53:07 43° 146° (SE) 585 -3.4 -15.2°
Enters shadow 20:53:49 37° 110° (ESE) 659 -3.3 -15.3°
